ANZ515 NZAA-NZCH

Flight info

Callsign ANZ515
Flight time 1h 9m
Altitude 38000
Route IGBAT H384 NP H252 NS Y288 IPRAK
Aircraft A320/M-SDE2E3FGHIRWXY/LB1

Departure

Time 2026-05-04 23:15
Airport Auckland International Airport (NZAA)

Arrival

Time 2026-05-05 00:24
Airport Christchurch International Airport (NZCH)
Time Latitude Longitude Altitude Speed Heading
2026-05-04 22:00 -37.00735 174.79010 35 ft 0 kts 341°
2026-05-04 23:01 -37.00738 174.79011 35 ft 2 kts 341°
2026-05-04 23:01 -37.00753 174.79018 35 ft 2 kts 341°
2026-05-04 23:01 -37.00767 174.79024 35 ft 2 kts 341°
2026-05-04 23:01 -37.00781 174.79030 35 ft 2 kts 341°
2026-05-04 23:02 -37.00796 174.79031 34 ft 2 kts 17°
2026-05-04 23:02 -37.00809 174.79022 34 ft 2 kts 45°
2026-05-04 23:02 -37.00817 174.79010 33 ft 0 kts 67°
2026-05-04 23:02 -37.00819 174.79002 33 ft 1 kts 71°
2026-05-04 23:03 -37.00819 174.79001 33 ft 0 kts 71°
2026-05-04 23:05 -37.00816 174.79011 33 ft 3 kts 71°
2026-05-04 23:05 -37.00806 174.79050 34 ft 4 kts 73°
2026-05-04 23:05 -37.00816 174.79095 34 ft 7 kts 137°
2026-05-04 23:05 -37.00864 174.79109 32 ft 8 kts 201°
2026-05-04 23:06 -37.00898 174.79034 30 ft 12 kts 252°
2026-05-04 23:06 -37.00931 174.78917 28 ft 15 kts 250°
2026-05-04 23:06 -37.00967 174.78781 26 ft 17 kts 251°
2026-05-04 23:06 -37.01012 174.78621 21 ft 21 kts 251°
2026-05-04 23:07 -37.01063 174.78439 18 ft 23 kts 250°
2026-05-04 23:07 -37.01112 174.78256 22 ft 20 kts 251°
2026-05-04 23:07 -37.01156 174.78102 29 ft 17 kts 250°
2026-05-04 23:07 -37.01196 174.77959 29 ft 18 kts 251°
2026-05-04 23:08 -37.01240 174.77800 26 ft 20 kts 251°
2026-05-04 23:08 -37.01287 174.77634 28 ft 19 kts 250°
2026-05-04 23:08 -37.01331 174.77473 29 ft 19 kts 251°
2026-05-04 23:08 -37.01377 174.77306 27 ft 21 kts 250°
2026-05-04 23:09 -37.01410 174.77184 26 ft 3 kts 253°
2026-05-04 23:09 -37.01420 174.77147 27 ft 5 kts 243°
2026-05-04 23:09 -37.01458 174.77112 27 ft 8 kts 198°
2026-05-04 23:09 -37.01472 174.77106 27 ft 0 kts 194°
2026-05-04 23:13 -37.01517 174.77094 26 ft 11 kts 190°
2026-05-04 23:14 -37.01592 174.77083 25 ft 7 kts 172°
2026-05-04 23:14 -37.01617 174.77138 25 ft 9 kts 73°
2026-05-04 23:14 -37.01553 174.77368 27 ft 60 kts 71°
2026-05-04 23:14 -37.01340 174.78140 33 ft 126 kts 70°
2026-05-04 23:15 -37.01006 174.79362 306 ft 155 kts 71°
2026-05-04 23:15 -37.00646 174.80621 957 ft 157 kts 71°
2026-05-04 23:15 -37.00280 174.81952 1501 ft 172 kts 69°
2026-05-04 23:15 -36.99868 174.83431 1992 ft 192 kts 69°
2026-05-04 23:16 -36.99413 174.85045 2643 ft 205 kts 68°
2026-05-04 23:16 -36.98946 174.86711 3547 ft 207 kts 68°
2026-05-04 23:16 -36.98468 174.88405 4437 ft 210 kts 67°
2026-05-04 23:16 -36.98196 174.90199 5271 ft 219 kts 94°
2026-05-04 23:17 -36.98808 174.91936 6099 ft 232 kts 129°
2026-05-04 23:17 -37.00171 174.93024 6923 ft 241 kts 158°
2026-05-04 23:17 -37.01760 174.93657 7744 ft 245 kts 162°
2026-05-04 23:17 -37.03477 174.93765 8521 ft 253 kts 196°
2026-05-04 23:18 -37.04932 174.92619 9303 ft 254 kts 233°
2026-05-04 23:18 -37.05679 174.90662 10054 ft 253 kts 255°
2026-05-04 23:18 -37.06182 174.88535 10607 ft 265 kts 255°
2026-05-04 23:18 -37.06742 174.86247 11028 ft 283 kts 254°
2026-05-04 23:19 -37.07368 174.83847 11421 ft 301 kts 253°
2026-05-04 23:19 -37.08060 174.81290 11850 ft 317 kts 252°
2026-05-04 23:19 -37.08782 174.78670 12506 ft 322 kts 252°
2026-05-04 23:19 -37.09517 174.76042 13258 ft 324 kts 250°
2026-05-04 23:20 -37.10680 174.73650 13942 ft 330 kts 225°
2026-05-04 23:20 -37.12628 174.72174 14630 ft 334 kts 196°
2026-05-04 23:20 -37.14933 174.71716 15315 ft 336 kts 185°
2026-05-04 23:20 -37.17268 174.71394 15926 ft 341 kts 186°
2026-05-04 23:21 -37.19628 174.71028 16552 ft 345 kts 187°
2026-05-04 23:21 -37.22017 174.70621 17162 ft 349 kts 187°
2026-05-04 23:21 -37.24423 174.70186 17758 ft 353 kts 188°
2026-05-04 23:21 -37.26891 174.69724 18364 ft 356 kts 188°
2026-05-04 23:22 -37.29347 174.69258 18956 ft 359 kts 188°
2026-05-04 23:22 -37.31821 174.68787 19542 ft 362 kts 188°
2026-05-04 23:22 -37.34307 174.68311 20106 ft 365 kts 188°
2026-05-04 23:22 -37.36818 174.67828 20661 ft 367 kts 188°
2026-05-04 23:23 -37.39336 174.67343 21191 ft 370 kts 188°
2026-05-04 23:23 -37.41890 174.66850 21729 ft 373 kts 188°
2026-05-04 23:23 -37.44469 174.66351 22251 ft 375 kts 188°
2026-05-04 23:23 -37.47037 174.65855 22758 ft 378 kts 188°
2026-05-04 23:24 -37.49674 174.65346 23276 ft 380 kts 188°
2026-05-04 23:24 -37.52264 174.64845 23778 ft 382 kts 188°
2026-05-04 23:24 -37.54903 174.64337 24257 ft 385 kts 188°
2026-05-04 23:24 -37.57554 174.63756 24717 ft 388 kts 192°
2026-05-04 23:25 -37.60178 174.62997 25172 ft 390 kts 194°
2026-05-04 23:25 -37.62813 174.62181 25614 ft 393 kts 194°
2026-05-04 23:25 -37.65503 174.61336 26062 ft 396 kts 195°
2026-05-04 23:25 -37.68178 174.60495 26502 ft 398 kts 195°
2026-05-04 23:26 -37.70860 174.59654 26942 ft 400 kts 195°
2026-05-04 23:26 -37.73557 174.58810 27372 ft 403 kts 195°
2026-05-04 23:26 -37.76305 174.57950 27786 ft 405 kts 195°
2026-05-04 23:26 -37.79044 174.57094 28185 ft 408 kts 195°
2026-05-04 23:27 -37.81810 174.56227 28580 ft 410 kts 195°
2026-05-04 23:27 -37.84565 174.55364 28972 ft 413 kts 195°
2026-05-04 23:27 -37.87343 174.54492 29349 ft 415 kts 195°
2026-05-04 23:27 -37.90183 174.53601 29720 ft 418 kts 195°
2026-05-04 23:28 -37.92990 174.52719 30095 ft 420 kts 195°
2026-05-04 23:28 -37.95824 174.51829 30443 ft 422 kts 195°
2026-05-04 23:28 -37.98672 174.50934 30782 ft 423 kts 195°
2026-05-04 23:28 -38.01529 174.50038 31119 ft 425 kts 195°
2026-05-04 23:29 -38.04430 174.49127 31457 ft 426 kts 195°
2026-05-04 23:29 -38.07310 174.48224 31774 ft 427 kts 195°
2026-05-04 23:29 -38.10171 174.47325 32086 ft 428 kts 195°
2026-05-04 23:29 -38.13075 174.46411 32388 ft 430 kts 195°
2026-05-04 23:30 -38.15998 174.45488 32672 ft 431 kts 194°
2026-05-04 23:30 -38.18902 174.44571 32959 ft 432 kts 194°
2026-05-04 23:30 -38.21836 174.43645 33240 ft 434 kts 194°
2026-05-04 23:30 -38.24733 174.42729 33512 ft 435 kts 194°
2026-05-04 23:31 -38.27677 174.41797 33793 ft 436 kts 194°
2026-05-04 23:31 -38.30637 174.40860 34075 ft 437 kts 194°
2026-05-04 23:31 -38.33591 174.39925 34338 ft 437 kts 194°
2026-05-04 23:31 -38.36517 174.38998 34564 ft 439 kts 194°
2026-05-04 23:32 -38.39496 174.38055 34838 ft 439 kts 194°
2026-05-04 23:32 -38.42438 174.37120 35142 ft 438 kts 194°
2026-05-04 23:32 -38.45409 174.36175 35449 ft 437 kts 194°
2026-05-04 23:32 -38.48338 174.35245 35730 ft 436 kts 194°
2026-05-04 23:33 -38.51288 174.34305 36033 ft 436 kts 195°
2026-05-04 23:33 -38.54219 174.33369 36366 ft 435 kts 195°
2026-05-04 23:33 -38.57161 174.32431 36691 ft 435 kts 195°
2026-05-04 23:33 -38.60102 174.31491 36981 ft 435 kts 195°
2026-05-04 23:34 -38.63010 174.30562 37228 ft 436 kts 195°
2026-05-04 23:34 -38.65964 174.29616 37465 ft 437 kts 195°
2026-05-04 23:34 -38.68894 174.28677 37716 ft 437 kts 195°
2026-05-04 23:34 -38.71837 174.27734 37945 ft 438 kts 195°
2026-05-04 23:35 -38.74813 174.26779 38146 ft 439 kts 195°
2026-05-04 23:35 -38.77752 174.25835 38339 ft 440 kts 195°
2026-05-04 23:35 -38.80720 174.24881 38502 ft 442 kts 195°
2026-05-04 23:35 -38.83719 174.23917 38505 ft 443 kts 195°
2026-05-04 23:36 -38.89683 174.21994 38509 ft 443 kts 195°
2026-05-04 23:36 -38.95661 174.20062 38508 ft 442 kts 195°
2026-05-04 23:37 -39.01593 174.18069 38509 ft 441 kts 197°
2026-05-04 23:37 -39.07429 174.15724 38505 ft 441 kts 198°
2026-05-04 23:38 -39.13318 174.13309 38499 ft 442 kts 198°
2026-05-04 23:38 -39.19179 174.10907 38488 ft 442 kts 198°
2026-05-04 23:39 -39.25013 174.08517 38477 ft 443 kts 198°
2026-05-04 23:39 -39.30858 174.06117 38474 ft 442 kts 198°
2026-05-04 23:40 -39.36744 174.03696 38483 ft 443 kts 198°
2026-05-04 23:40 -39.42588 174.01285 38487 ft 442 kts 198°
2026-05-04 23:41 -39.48460 173.98863 38533 ft 441 kts 198°
2026-05-04 23:41 -39.54272 173.96468 38510 ft 441 kts 198°
2026-05-04 23:42 -39.60111 173.94052 38508 ft 442 kts 198°
2026-05-04 23:42 -39.65962 173.91628 38498 ft 442 kts 198°
2026-05-04 23:43 -39.71819 173.89192 38502 ft 442 kts 198°
2026-05-04 23:43 -39.77664 173.86760 38493 ft 441 kts 198°
2026-05-04 23:44 -39.83461 173.84341 38508 ft 440 kts 198°
2026-05-04 23:44 -39.89289 173.81908 38499 ft 440 kts 198°
2026-05-04 23:45 -39.95123 173.79472 38507 ft 441 kts 197°
2026-05-04 23:45 -40.00943 173.77039 38503 ft 440 kts 197°
2026-05-04 23:46 -40.06785 173.74588 38503 ft 440 kts 197°
2026-05-04 23:46 -40.12603 173.72142 38500 ft 440 kts 198°
2026-05-04 23:47 -40.18424 173.69690 38505 ft 440 kts 198°
2026-05-04 23:47 -40.24237 173.67235 38501 ft 440 kts 198°
2026-05-04 23:48 -40.30039 173.64777 38495 ft 441 kts 198°
2026-05-04 23:48 -40.35901 173.62294 38500 ft 441 kts 198°
2026-05-04 23:49 -40.41693 173.59843 38499 ft 441 kts 198°
2026-05-04 23:49 -40.47527 173.57367 38497 ft 441 kts 198°
2026-05-04 23:50 -40.53365 173.54881 38490 ft 440 kts 198°
2026-05-04 23:50 -40.59161 173.52405 38487 ft 440 kts 198°
2026-05-04 23:51 -40.64972 173.49919 38448 ft 440 kts 198°
2026-05-04 23:51 -40.70772 173.47438 38454 ft 440 kts 198°
2026-05-04 23:52 -40.76602 173.44937 38473 ft 440 kts 198°
2026-05-04 23:52 -40.82391 173.42448 38478 ft 440 kts 198°
2026-05-04 23:53 -40.88237 173.39938 38482 ft 440 kts 198°
2026-05-04 23:53 -40.94028 173.37445 38456 ft 440 kts 198°
2026-05-04 23:54 -40.99829 173.34941 38452 ft 439 kts 199°
2026-05-04 23:54 -41.05600 173.32442 38463 ft 438 kts 199°
2026-05-04 23:55 -41.11404 173.29923 38449 ft 438 kts 199°
2026-05-04 23:56 -41.20089 173.26146 38457 ft 438 kts 199°
2026-05-04 23:56 -41.22979 173.24887 38288 ft 439 kts 199°
2026-05-04 23:56 -41.25842 173.23639 37996 ft 437 kts 199°
2026-05-04 23:56 -41.28731 173.22378 37700 ft 434 kts 199°
2026-05-04 23:57 -41.31576 173.21196 37411 ft 430 kts 197°
2026-05-04 23:57 -41.34467 173.20081 37119 ft 429 kts 196°
2026-05-04 23:57 -41.37312 173.18997 36833 ft 429 kts 196°
2026-05-04 23:57 -41.40196 173.17900 36518 ft 429 kts 196°
2026-05-04 23:58 -41.43040 173.16815 36468 ft 430 kts 196°
2026-05-04 23:58 -41.45937 173.15706 35732 ft 433 kts 196°
2026-05-04 23:58 -41.48817 173.14601 34998 ft 436 kts 196°
2026-05-04 23:58 -41.51757 173.13472 34260 ft 438 kts 196°
2026-05-04 23:59 -41.54652 173.12357 33764 ft 434 kts 196°
2026-05-04 23:59 -41.57520 173.11250 33297 ft 430 kts 196°
2026-05-04 23:59 -41.60400 173.10139 32826 ft 425 kts 196°
2026-05-04 23:59 -41.63205 173.09058 32363 ft 421 kts 196°
2026-05-05 00:00 -41.65990 173.07982 31907 ft 417 kts 195°
2026-05-05 00:00 -41.66919 173.07623 31751 ft 416 kts 195°
2026-05-05 00:00 -41.71531 173.05839 30998 ft 410 kts 195°
2026-05-05 00:00 -41.74245 173.04788 30568 ft 406 kts 195°
2026-05-05 00:01 -41.76926 173.03749 30137 ft 402 kts 195°
2026-05-05 00:01 -41.79573 173.02722 29724 ft 398 kts 195°
2026-05-05 00:01 -41.82233 173.01689 29285 ft 394 kts 195°
2026-05-05 00:01 -41.84846 173.00673 28839 ft 391 kts 195°
2026-05-05 00:02 -41.87470 172.99652 28388 ft 388 kts 195°
2026-05-05 00:02 -41.90037 172.98653 27940 ft 386 kts 195°
2026-05-05 00:02 -41.92590 172.97658 27493 ft 383 kts 195°
2026-05-05 00:02 -41.95150 172.96660 27038 ft 381 kts 195°
2026-05-05 00:03 -41.97669 172.95676 26590 ft 378 kts 195°
2026-05-05 00:03 -42.00171 172.94696 26145 ft 376 kts 195°
2026-05-05 00:03 -42.02692 172.93710 25697 ft 374 kts 195°
2026-05-05 00:03 -42.05156 172.92746 25253 ft 372 kts 195°
2026-05-05 00:04 -42.07626 172.91777 24797 ft 370 kts 195°
2026-05-05 00:04 -42.10104 172.90807 24337 ft 368 kts 195°
2026-05-05 00:04 -42.12555 172.89845 23881 ft 366 kts 195°
2026-05-05 00:04 -42.14988 172.88888 23429 ft 365 kts 195°
2026-05-05 00:05 -42.17413 172.87936 22983 ft 363 kts 195°
2026-05-05 00:05 -42.19849 172.86980 22542 ft 362 kts 195°
2026-05-05 00:05 -42.22242 172.86040 22113 ft 360 kts 195°
2026-05-05 00:05 -42.24631 172.85098 21687 ft 359 kts 195°
2026-05-05 00:06 -42.27033 172.84152 21251 ft 358 kts 195°
2026-05-05 00:06 -42.29392 172.83221 20826 ft 357 kts 195°
2026-05-05 00:06 -42.31782 172.82277 20400 ft 356 kts 195°
2026-05-05 00:06 -42.34150 172.81342 19967 ft 356 kts 196°
2026-05-05 00:07 -42.36528 172.80402 19538 ft 355 kts 196°
2026-05-05 00:07 -42.38889 172.79466 19101 ft 355 kts 196°
2026-05-05 00:07 -42.41251 172.78529 18660 ft 355 kts 196°
2026-05-05 00:07 -42.43629 172.77586 18228 ft 355 kts 196°
2026-05-05 00:08 -42.45985 172.76651 17809 ft 354 kts 196°
2026-05-05 00:08 -42.48339 172.75716 17393 ft 353 kts 197°
2026-05-05 00:08 -42.50717 172.74770 16986 ft 353 kts 197°
2026-05-05 00:08 -42.53054 172.73842 16563 ft 352 kts 197°
2026-05-05 00:09 -42.55388 172.72913 16144 ft 351 kts 197°
2026-05-05 00:09 -42.57740 172.71976 15718 ft 350 kts 197°
2026-05-05 00:09 -42.60059 172.71051 15297 ft 349 kts 197°
2026-05-05 00:09 -42.62375 172.70126 14871 ft 349 kts 197°
2026-05-05 00:10 -42.64717 172.69191 14448 ft 348 kts 197°
2026-05-05 00:10 -42.67040 172.68263 14024 ft 347 kts 198°
2026-05-05 00:10 -42.69334 172.67346 13602 ft 346 kts 198°
2026-05-05 00:10 -42.71637 172.66422 13184 ft 344 kts 198°
2026-05-05 00:11 -42.73915 172.65508 12765 ft 343 kts 198°
2026-05-05 00:11 -42.76213 172.64583 12341 ft 342 kts 198°
2026-05-05 00:11 -42.78460 172.63680 11945 ft 340 kts 198°
2026-05-05 00:11 -42.80733 172.62767 11516 ft 339 kts 198°
2026-05-05 00:12 -42.82974 172.61865 11125 ft 337 kts 198°
2026-05-05 00:12 -42.85210 172.60965 10933 ft 327 kts 198°
2026-05-05 00:12 -42.87338 172.60103 10921 ft 317 kts 198°
2026-05-05 00:12 -42.89459 172.59242 10844 ft 315 kts 198°
2026-05-05 00:13 -42.91521 172.58403 10469 ft 308 kts 198°
2026-05-05 00:13 -42.93554 172.57576 9988 ft 300 kts 198°
2026-05-05 00:13 -42.95517 172.56776 9617 ft 291 kts 198°
2026-05-05 00:13 -42.97428 172.55997 9314 ft 286 kts 198°
2026-05-05 00:14 -42.99313 172.55226 9073 ft 284 kts 198°
2026-05-05 00:14 -43.01194 172.54457 8847 ft 283 kts 198°
2026-05-05 00:14 -43.03073 172.53690 8624 ft 281 kts 198°
2026-05-05 00:14 -43.04966 172.52916 8406 ft 280 kts 198°
2026-05-05 00:15 -43.06826 172.52155 8175 ft 279 kts 198°
2026-05-05 00:15 -43.08683 172.51395 7933 ft 278 kts 198°
2026-05-05 00:15 -43.10534 172.50636 7705 ft 276 kts 198°
2026-05-05 00:15 -43.12360 172.49887 7486 ft 274 kts 198°
2026-05-05 00:16 -43.14175 172.49142 7277 ft 273 kts 198°
2026-05-05 00:16 -43.15993 172.48396 7049 ft 272 kts 198°
2026-05-05 00:16 -43.17813 172.47649 6820 ft 271 kts 198°
2026-05-05 00:16 -43.19601 172.46915 6606 ft 270 kts 198°
2026-05-05 00:17 -43.21392 172.46179 6387 ft 269 kts 198°
2026-05-05 00:17 -43.23185 172.45442 6175 ft 266 kts 198°
2026-05-05 00:17 -43.24940 172.44720 5959 ft 262 kts 198°
2026-05-05 00:17 -43.26662 172.44014 5714 ft 259 kts 198°
2026-05-05 00:18 -43.28383 172.43306 5469 ft 256 kts 198°
2026-05-05 00:18 -43.30089 172.42603 5236 ft 253 kts 198°
2026-05-05 00:18 -43.31762 172.41913 4999 ft 250 kts 198°
2026-05-05 00:18 -43.33419 172.41228 4775 ft 247 kts 198°
2026-05-05 00:19 -43.35051 172.40553 4582 ft 244 kts 198°
2026-05-05 00:19 -43.36677 172.39882 4348 ft 241 kts 197°
2026-05-05 00:19 -43.38260 172.39227 4141 ft 238 kts 197°
2026-05-05 00:19 -43.39848 172.38654 3956 ft 234 kts 188°
2026-05-05 00:20 -43.41439 172.38576 3930 ft 225 kts 178°
2026-05-05 00:20 -43.43018 172.38680 3917 ft 224 kts 176°
2026-05-05 00:20 -43.44590 172.38808 3617 ft 230 kts 176°
2026-05-05 00:20 -43.46180 172.38928 3290 ft 231 kts 176°
2026-05-05 00:21 -43.47786 172.39040 2982 ft 231 kts 177°
2026-05-05 00:21 -43.49376 172.39143 2683 ft 226 kts 176°
2026-05-05 00:21 -43.50904 172.39554 2408 ft 220 kts 156°
2026-05-05 00:21 -43.52175 172.40613 2128 ft 213 kts 136°
2026-05-05 00:22 -43.53096 172.42140 1899 ft 197 kts 117°
2026-05-05 00:22 -43.53582 172.43790 1623 ft 179 kts 101°
2026-05-05 00:22 -43.53709 172.45418 1376 ft 165 kts 86°
2026-05-05 00:22 -43.53520 172.46889 1139 ft 152 kts 70°
2026-05-05 00:23 -43.53075 172.48152 918 ft 140 kts 55°
2026-05-05 00:23 -43.52469 172.49129 723 ft 129 kts 41°
2026-05-05 00:23 -43.51792 172.49908 573 ft 126 kts 37°
2026-05-05 00:23 -43.51115 172.50667 451 ft 125 kts 39°
2026-05-05 00:24 -43.50445 172.51428 354 ft 125 kts 39°
2026-05-05 00:24 -43.49775 172.52196 190 ft 125 kts 39°
2026-05-05 00:24 -43.49133 172.52937 121 ft 104 kts 41°
2026-05-05 00:24 -43.48731 172.53404 114 ft 49 kts 39°
2026-05-05 00:25 -43.48541 172.53628 110 ft 21 kts 47°
2026-05-05 00:25 -43.48480 172.53815 109 ft 20 kts 71°
2026-05-05 00:25 -43.48460 172.53929 110 ft 9 kts 98°
2026-05-05 00:25 -43.48493 172.53981 109 ft 8 kts 165°
2026-05-05 00:26 -43.48551 172.53943 110 ft 10 kts 222°
2026-05-05 00:26 -43.48613 172.53870 109 ft 13 kts 220°
2026-05-05 00:26 -43.48687 172.53786 109 ft 12 kts 219°
2026-05-05 00:26 -43.48754 172.53709 109 ft 11 kts 219°
2026-05-05 00:27 -43.48796 172.53674 109 ft 6 kts 166°
2026-05-05 00:27 -43.48833 172.53728 108 ft 5 kts 129°
2026-05-05 00:27 -43.48856 172.53764 109 ft 2 kts 130°
2026-05-05 00:27 -43.48859 172.53770 109 ft 0 kts 129°